LPA3638 UGTB-LIRF

Flight info

Callsign LPA3638
Flight time N/A
Altitude 40000
Route DF N11 ROLIN UN644 SIN UW90 DEVMU UL852 NEGEM Q8 DOLAP DCT OBLAK DCT KATTI/N0481F410 DCT RIVAM DCT ERPOG/N0467F330 DCT ESODU/N0391F190 Z924 MOPUV
Aircraft B789/H-SDE1E2E3FGHIJ2J3J4J5M1RWXY/LB1D1

Departure

Time 2026-04-27 18:26
Airport Tbilisi International Airport (UGTB)

Arrival

Time N/A
Airport Rome–Fiumicino Leonardo da Vinci International Airport (LIRF)
Time Latitude Longitude Altitude Speed Heading
2026-04-27 17:22 41.67021 44.96115 1573 ft 0 kts 43°
2026-04-27 18:04 41.67015 44.96107 1571 ft 2 kts 50°
2026-04-27 18:04 41.67007 44.96090 1571 ft 2 kts 67°
2026-04-27 18:04 41.67002 44.96071 1570 ft 2 kts 79°
2026-04-27 18:05 41.67000 44.96051 1569 ft 2 kts 92°
2026-04-27 18:05 41.67002 44.96032 1569 ft 2 kts 105°
2026-04-27 18:05 41.67007 44.96013 1569 ft 2 kts 119°
2026-04-27 18:05 41.67016 44.95996 1569 ft 2 kts 132°
2026-04-27 18:06 41.67026 44.95982 1569 ft 2 kts 135°
2026-04-27 18:06 41.67036 44.95968 1569 ft 1 kts 133°
2026-04-27 18:06 41.67038 44.95966 1569 ft 0 kts 133°
2026-04-27 18:08 41.67037 44.95966 1569 ft 0 kts 133°
2026-04-27 18:08 41.67035 44.95969 1569 ft 1 kts 133°
2026-04-27 18:09 41.67021 44.95990 1569 ft 5 kts 131°
2026-04-27 18:09 41.66974 44.96061 1568 ft 15 kts 133°
2026-04-27 18:09 41.66887 44.96185 1566 ft 20 kts 133°
2026-04-27 18:09 41.66790 44.96322 1565 ft 19 kts 133°
2026-04-27 18:10 41.66685 44.96422 1561 ft 19 kts 179°
2026-04-27 18:10 41.66545 44.96384 1551 ft 20 kts 194°
2026-04-27 18:10 41.66405 44.96336 1543 ft 20 kts 193°
2026-04-27 18:10 41.66267 44.96296 1534 ft 20 kts 182°
2026-04-27 18:11 41.66136 44.96355 1527 ft 21 kts 140°
2026-04-27 18:11 41.66056 44.96453 1523 ft 12 kts 136°
2026-04-27 18:11 41.66050 44.96461 1522 ft 0 kts 136°
2026-04-27 18:14 41.66045 44.96467 1522 ft 2 kts 136°
2026-04-27 18:14 41.66018 44.96502 1520 ft 7 kts 136°
2026-04-27 18:14 41.65989 44.96540 1517 ft 0 kts 135°
2026-04-27 18:16 41.65981 44.96550 1517 ft 5 kts 135°
2026-04-27 18:16 41.65942 44.96587 1512 ft 3 kts 155°
2026-04-27 18:16 41.65942 44.96588 1512 ft 0 kts 155°
2026-04-27 18:19 41.65908 44.96597 1508 ft 9 kts 182°
2026-04-27 18:19 41.65904 44.96597 1508 ft 0 kts 188°
2026-04-27 18:22 41.65900 44.96596 1508 ft 2 kts 189°
2026-04-27 18:23 41.65875 44.96579 1506 ft 4 kts 223°
2026-04-27 18:23 41.65855 44.96536 1506 ft 7 kts 252°
2026-04-27 18:23 41.65861 44.96455 1509 ft 9 kts 302°
2026-04-27 18:23 41.65884 44.96417 1511 ft 0 kts 313°
2026-04-27 18:25 41.65908 44.96384 1513 ft 13 kts 315°
2026-04-27 18:26 41.66025 44.96234 1520 ft 49 kts 315°
2026-04-27 18:26 41.66478 44.95668 1532 ft 125 kts 314°
2026-04-27 18:26 41.67271 44.94682 1773 ft 176 kts 315°
2026-04-27 18:26 41.68128 44.93775 3223 ft 148 kts 321°
2026-04-27 18:27 41.68969 44.92836 3621 ft 178 kts 316°
2026-04-27 18:27 41.69992 44.91600 4096 ft 205 kts 317°
2026-04-27 18:27 41.71088 44.90281 5046 ft 208 kts 317°
2026-04-27 18:27 41.72091 44.88904 6069 ft 205 kts 307°
2026-04-27 18:28 41.72929 44.87396 6995 ft 205 kts 308°
2026-04-27 18:28 41.73823 44.85952 7700 ft 188 kts 308°
2026-04-27 18:28 41.74624 44.84612 8186 ft 185 kts 309°
2026-04-27 18:28 41.75469 44.83231 8737 ft 198 kts 308°
2026-04-27 18:29 41.76349 44.81784 9362 ft 207 kts 308°
2026-04-27 18:29 41.77273 44.80271 10034 ft 213 kts 308°
2026-04-27 18:29 41.78207 44.78738 10714 ft 217 kts 307°
2026-04-27 18:29 41.79168 44.77160 11407 ft 222 kts 307°
2026-04-27 18:30 41.80159 44.75531 12131 ft 229 kts 307°
2026-04-27 18:30 41.81157 44.73889 12880 ft 234 kts 306°
2026-04-27 18:30 41.82192 44.72192 13656 ft 237 kts 306°
2026-04-27 18:30 41.83262 44.70424 14178 ft 251 kts 306°
2026-04-27 18:31 41.84395 44.68554 14624 ft 269 kts 306°
2026-04-27 18:31 41.85616 44.66544 15050 ft 288 kts 307°
2026-04-27 18:31 41.86924 44.64386 15424 ft 308 kts 307°
2026-04-27 18:31 41.88308 44.62104 15751 ft 328 kts 307°
2026-04-27 18:32 41.89795 44.59648 16107 ft 348 kts 307°
2026-04-27 18:32 41.91239 44.56972 16504 ft 360 kts 297°
2026-04-27 18:32 41.91877 44.53796 16953 ft 346 kts 272°
2026-04-27 18:32 41.91708 44.50676 17030 ft 327 kts 265°
2026-04-27 18:33 41.91685 44.47628 17140 ft 330 kts 270°
2026-04-27 18:33 41.91665 44.44424 17348 ft 352 kts 269°
2026-04-27 18:33 41.91660 44.41100 17764 ft 362 kts 270°
2026-04-27 18:33 41.91653 44.37713 18286 ft 366 kts 269°
2026-04-27 18:34 41.91647 44.34299 18857 ft 368 kts 269°
2026-04-27 18:34 41.91639 44.30840 19433 ft 371 kts 269°
2026-04-27 18:34 41.91631 44.27325 20021 ft 375 kts 269°
2026-04-27 18:34 41.91621 44.23786 20613 ft 380 kts 269°
2026-04-27 18:35 41.91610 44.20276 21188 ft 383 kts 269°
2026-04-27 18:35 41.91600 44.16710 21755 ft 386 kts 269°
2026-04-27 18:35 41.91588 44.13076 22307 ft 390 kts 269°
2026-04-27 18:35 41.91572 44.09420 22890 ft 393 kts 269°
2026-04-27 18:36 41.91558 44.05747 23435 ft 397 kts 269°
2026-04-27 18:36 41.91543 44.02032 24011 ft 399 kts 269°
2026-04-27 18:36 41.91524 43.98288 24556 ft 403 kts 269°
2026-04-27 18:36 41.91506 43.94558 25128 ft 405 kts 269°
2026-04-27 18:37 41.91487 43.90758 25721 ft 408 kts 269°
2026-04-27 18:37 41.91462 43.86919 26283 ft 412 kts 269°
2026-04-27 18:37 41.91439 43.83041 26867 ft 414 kts 269°
2026-04-27 18:37 41.91414 43.79177 27413 ft 418 kts 268°
2026-04-27 18:38 41.91386 43.75299 27959 ft 420 kts 268°
2026-04-27 18:38 41.91358 43.71349 28483 ft 423 kts 268°
2026-04-27 18:38 41.91328 43.67389 29033 ft 424 kts 268°
2026-04-27 18:38 41.91296 43.63405 29584 ft 422 kts 269°
2026-04-27 18:39 41.91264 43.59470 30090 ft 423 kts 268°
2026-04-27 18:39 41.91232 43.55561 30624 ft 420 kts 268°
2026-04-27 18:39 41.91197 43.51654 31112 ft 419 kts 268°
2026-04-27 18:39 41.91161 43.47769 31595 ft 418 kts 268°
2026-04-27 18:40 41.91123 43.43881 32027 ft 419 kts 268°
2026-04-27 18:40 41.91085 43.40004 32475 ft 416 kts 268°
2026-04-27 18:40 41.91047 43.36136 32886 ft 416 kts 268°
2026-04-27 18:40 41.91005 43.32223 33277 ft 416 kts 268°
2026-04-27 18:41 41.90962 43.28318 33676 ft 414 kts 268°
2026-04-27 18:41 41.90919 43.24455 34046 ft 413 kts 268°
2026-04-27 18:41 41.90873 43.20651 34367 ft 413 kts 268°
2026-04-27 18:41 41.90829 43.16813 34718 ft 411 kts 268°
2026-04-27 18:42 41.90782 43.13003 34977 ft 410 kts 268°
2026-04-27 18:42 41.90752 43.10476 35152 ft 408 kts 268°
2026-04-27 18:42 41.90686 43.05387 35455 ft 407 kts 268°
2026-04-27 18:42 41.90635 43.01572 35660 ft 407 kts 268°
2026-04-27 18:43 41.90585 42.97839 35817 ft 407 kts 268°
2026-04-27 18:43 41.90533 42.94026 36006 ft 406 kts 268°
2026-04-27 18:43 41.90478 42.90248 36182 ft 406 kts 268°
2026-04-27 18:43 41.90424 42.86476 36353 ft 406 kts 268°
2026-04-27 18:44 41.90370 42.82678 36538 ft 404 kts 267°
2026-04-27 18:44 41.90250 42.78943 36668 ft 403 kts 264°
2026-04-27 18:44 41.90061 42.75169 36836 ft 404 kts 265°
2026-04-27 18:44 41.89908 42.71413 37043 ft 402 kts 265°
2026-04-27 18:45 41.89751 42.67685 37216 ft 402 kts 265°
2026-04-27 18:45 41.89600 42.63967 37381 ft 402 kts 265°
2026-04-27 18:45 41.89446 42.60203 37550 ft 401 kts 265°
2026-04-27 18:45 41.89292 42.56474 37712 ft 401 kts 265°
2026-04-27 18:46 41.89140 42.52764 37874 ft 400 kts 265°
2026-04-27 18:46 41.88986 42.49011 38023 ft 400 kts 265°
2026-04-27 18:46 41.88832 42.45305 38196 ft 399 kts 265°
2026-04-27 18:46 41.88675 42.41572 38364 ft 399 kts 265°
2026-04-27 18:47 41.88518 42.37838 38523 ft 399 kts 265°
2026-04-27 18:47 41.88364 42.34231 38635 ft 399 kts 265°
2026-04-27 18:47 41.88200 42.30413 38811 ft 399 kts 265°
2026-04-27 18:47 41.88040 42.26723 38962 ft 400 kts 264°
2026-04-27 18:48 41.87878 42.22975 39128 ft 399 kts 264°
2026-04-27 18:48 41.87717 42.19323 39288 ft 399 kts 264°
2026-04-27 18:48 41.87551 42.15559 39439 ft 399 kts 264°
2026-04-27 18:48 41.87386 42.11856 39561 ft 399 kts 264°
2026-04-27 18:49 41.87219 42.08136 39724 ft 399 kts 264°
2026-04-27 18:49 41.87051 42.04445 39896 ft 398 kts 264°
2026-04-27 18:49 41.86882 42.00739 40018 ft 398 kts 264°
2026-04-27 18:49 41.86713 41.97027 40148 ft 397 kts 264°
2026-04-27 18:50 41.86541 41.93330 40263 ft 400 kts 264°
2026-04-27 18:50 41.86367 41.89595 40248 ft 408 kts 264°
2026-04-27 18:50 41.86001 41.81818 40269 ft 427 kts 265°
2026-04-27 18:51 41.85620 41.73797 40268 ft 433 kts 265°
2026-04-27 18:51 41.85231 41.65770 40266 ft 431 kts 265°
2026-04-27 18:52 41.84839 41.57742 40278 ft 431 kts 265°
2026-04-27 18:53 41.84240 41.45743 40294 ft 431 kts 265°
2026-04-27 18:53 41.83831 41.37727 40271 ft 431 kts 265°
2026-04-27 18:54 41.83417 41.29691 40282 ft 431 kts 264°
2026-04-27 18:54 41.83000 41.21715 40281 ft 431 kts 264°
2026-04-27 18:55 41.82578 41.13715 40268 ft 431 kts 264°
2026-04-27 18:55 41.82148 41.05706 40275 ft 432 kts 264°
2026-04-27 18:56 41.81712 40.97678 40280 ft 432 kts 265°
2026-04-27 18:56 41.81271 40.89642 40272 ft 431 kts 264°
2026-04-27 18:57 41.80823 40.81633 40276 ft 432 kts 264°
2026-04-27 18:57 41.80375 40.73684 40275 ft 430 kts 264°
2026-04-27 18:58 41.79961 40.65671 40265 ft 430 kts 267°
2026-04-27 18:58 41.80083 40.57661 40285 ft 432 kts 273°
2026-04-27 18:59 41.80576 40.49675 40265 ft 432 kts 272°
2026-04-27 18:59 41.80954 40.41660 40259 ft 431 kts 272°
2026-04-27 19:00 41.81302 40.33646 40257 ft 431 kts 272°
2026-04-27 19:00 41.81636 40.25671 40266 ft 431 kts 271°
2026-04-27 19:01 41.81965 40.17668 40275 ft 431 kts 271°
2026-04-27 19:01 41.82289 40.09666 40276 ft 431 kts 272°
2026-04-27 19:02 41.82601 40.01673 40281 ft 430 kts 272°
2026-04-27 19:02 41.82909 39.93705 40278 ft 430 kts 272°
2026-04-27 19:03 41.83215 39.85682 40270 ft 430 kts 272°
2026-04-27 19:03 41.83511 39.77748 40268 ft 429 kts 272°
2026-04-27 19:04 41.83802 39.69776 40272 ft 429 kts 272°
2026-04-27 19:04 41.84089 39.61798 40280 ft 428 kts 272°
2026-04-27 19:05 41.84368 39.53884 40242 ft 427 kts 272°
2026-04-27 19:05 41.84647 39.45902 40265 ft 428 kts 272°
2026-04-27 19:06 41.84915 39.37962 40280 ft 428 kts 272°
2026-04-27 19:06 41.85178 39.30014 40280 ft 427 kts 271°
2026-04-27 19:07 41.85437 39.22110 40277 ft 428 kts 271°
2026-04-27 19:07 41.85690 39.14123 40280 ft 427 kts 271°
2026-04-27 19:08 41.85936 39.06222 40270 ft 425 kts 271°
2026-04-27 19:08 41.86179 38.98288 40279 ft 426 kts 271°
2026-04-27 19:09 41.86415 38.90345 40283 ft 425 kts 271°
2026-04-27 19:09 41.86646 38.82451 40276 ft 425 kts 271°
2026-04-27 19:10 41.86872 38.74544 40282 ft 425 kts 271°
2026-04-27 19:10 41.87090 38.66610 40281 ft 426 kts 271°
2026-04-27 19:11 41.87303 38.58707 40282 ft 425 kts 271°
2026-04-27 19:11 41.87513 38.50792 40279 ft 426 kts 271°
2026-04-27 19:12 41.87715 38.42903 40278 ft 424 kts 271°
2026-04-27 19:12 41.87913 38.35012 40275 ft 424 kts 271°
2026-04-27 19:13 41.88105 38.27071 40282 ft 424 kts 271°
2026-04-27 19:13 41.88292 38.19174 40280 ft 425 kts 271°
2026-04-27 19:14 41.88473 38.11269 40279 ft 425 kts 271°
2026-04-27 19:14 41.88651 38.03301 40279 ft 425 kts 271°
2026-04-27 19:15 41.88820 37.95420 40281 ft 425 kts 271°
2026-04-27 19:15 41.88985 37.87539 40278 ft 424 kts 271°
2026-04-27 19:16 41.89144 37.79635 40280 ft 423 kts 271°
2026-04-27 19:16 41.89298 37.71755 40277 ft 423 kts 271°
2026-04-27 19:17 41.89446 37.63871 40279 ft 422 kts 271°
2026-04-27 19:17 41.89588 37.56060 40278 ft 421 kts 271°
2026-04-27 19:18 41.89726 37.48201 40277 ft 422 kts 271°
2026-04-27 19:18 41.89857 37.40309 40276 ft 423 kts 271°
2026-04-27 19:19 41.89983 37.32422 40278 ft 424 kts 270°
2026-04-27 19:19 41.90105 37.24546 40281 ft 423 kts 270°
2026-04-27 19:20 41.90221 37.16703 40282 ft 423 kts 270°
2026-04-27 19:20 41.90331 37.08852 40274 ft 422 kts 270°
2026-04-27 19:21 41.90444 37.00974 40276 ft 423 kts 271°
2026-04-27 19:21 41.90990 36.93154 40275 ft 422 kts 277°
2026-04-27 19:22 41.91658 36.85321 40276 ft 421 kts 275°
2026-04-27 19:22 41.92217 36.77503 40270 ft 421 kts 274°
2026-04-27 19:23 41.92743 36.69701 40270 ft 421 kts 274°
2026-04-27 19:23 41.93260 36.61868 40274 ft 422 kts 274°
2026-04-27 19:24 41.93768 36.54069 40277 ft 423 kts 274°
2026-04-27 19:24 41.94276 36.46181 40262 ft 421 kts 274°
2026-04-27 19:25 41.94774 36.38368 40270 ft 421 kts 274°
2026-04-27 19:25 41.95267 36.30540 40277 ft 421 kts 274°
2026-04-27 19:26 41.95755 36.22710 40275 ft 420 kts 274°
2026-04-27 19:26 41.96234 36.14906 40275 ft 421 kts 274°
2026-04-27 19:27 41.96705 36.07181 40271 ft 422 kts 274°
2026-04-27 19:27 41.97185 35.99248 40277 ft 421 kts 274°
2026-04-27 19:28 41.97652 35.91395 40275 ft 421 kts 274°
2026-04-27 19:28 41.98113 35.83568 40275 ft 421 kts 274°
2026-04-27 19:29 41.98564 35.75808 40274 ft 422 kts 274°
2026-04-27 19:29 41.99012 35.68005 40262 ft 420 kts 274°
2026-04-27 19:30 41.99459 35.60125 40252 ft 419 kts 274°
2026-04-27 19:30 41.99900 35.52293 40253 ft 420 kts 274°
2026-04-27 19:31 42.00333 35.44486 40252 ft 419 kts 274°
2026-04-27 19:31 42.00761 35.36637 40250 ft 420 kts 274°
2026-04-27 19:32 42.01185 35.28796 40259 ft 422 kts 273°
2026-04-27 19:32 42.01605 35.20943 40258 ft 420 kts 273°
2026-04-27 19:33 42.02018 35.13100 40254 ft 418 kts 274°
2026-04-27 19:33 42.02182 35.05324 40254 ft 418 kts 268°
2026-04-27 19:34 42.01797 34.97487 40250 ft 419 kts 266°
2026-04-27 19:34 42.01397 34.89663 40252 ft 419 kts 266°
2026-04-27 19:35 42.00998 34.81862 40254 ft 418 kts 266°
2026-04-27 19:35 42.00630 34.74037 40251 ft 418 kts 266°
2026-04-27 19:36 42.00248 34.66211 40253 ft 419 kts 266°
2026-04-27 19:36 41.99861 34.58425 40257 ft 418 kts 266°
2026-04-27 19:37 41.99469 34.50624 40260 ft 419 kts 266°
2026-04-27 19:37 41.99072 34.42821 40264 ft 420 kts 266°
2026-04-27 19:38 41.98669 34.35004 40264 ft 420 kts 266°
2026-04-27 19:38 41.98256 34.27123 40268 ft 419 kts 266°
2026-04-27 19:39 41.97845 34.19371 40263 ft 420 kts 266°
2026-04-27 19:39 41.97423 34.11522 40261 ft 418 kts 266°
2026-04-27 19:40 41.97003 34.03804 40263 ft 417 kts 266°
2026-04-27 19:40 41.96574 33.95998 40247 ft 418 kts 266°
2026-04-27 19:41 41.96139 33.88190 40252 ft 417 kts 266°
2026-04-27 19:41 41.95702 33.80457 40249 ft 418 kts 266°
2026-04-27 19:42 41.95254 33.72609 40252 ft 417 kts 266°
2026-04-27 19:42 41.94804 33.64885 40233 ft 418 kts 266°
2026-04-27 19:43 41.94346 33.57060 40222 ft 419 kts 266°
2026-04-27 19:43 41.93886 33.49297 40213 ft 418 kts 266°
2026-04-27 19:44 41.93417 33.41509 40208 ft 417 kts 266°
2026-04-27 19:44 41.92945 33.33752 40217 ft 418 kts 265°
2026-04-27 19:45 41.92465 33.25952 40215 ft 418 kts 265°
2026-04-27 19:45 41.91987 33.18240 40219 ft 416 kts 265°
2026-04-27 19:46 41.91500 33.10493 40215 ft 415 kts 265°
2026-04-27 19:46 41.91016 33.02877 40202 ft 417 kts 265°
2026-04-27 19:47 41.90520 32.95160 40200 ft 417 kts 265°
2026-04-27 19:47 41.90015 32.87374 40198 ft 418 kts 265°
2026-04-27 19:48 41.89507 32.79632 40192 ft 418 kts 265°
2026-04-27 19:48 41.88993 32.71876 40193 ft 417 kts 265°
2026-04-27 19:49 41.88477 32.64155 40195 ft 417 kts 265°
2026-04-27 19:49 41.87969 32.56449 40205 ft 417 kts 266°
2026-04-27 19:50 41.87899 32.48631 40211 ft 417 kts 273°
2026-04-27 19:50 41.88499 32.40922 40216 ft 417 kts 278°
2026-04-27 19:51 41.89750 32.33349 40218 ft 418 kts 284°
2026-04-27 19:51 41.91659 32.25975 40221 ft 420 kts 290°
2026-04-27 19:52 41.93737 32.18677 40238 ft 420 kts 287°
2026-04-27 19:52 41.95556 32.11262 40237 ft 419 kts 286°
2026-04-27 19:53 41.98219 32.00075 40235 ft 419 kts 286°
2026-04-27 19:53 41.99974 31.92623 40234 ft 419 kts 286°
2026-04-27 19:54 42.01724 31.85168 40239 ft 419 kts 286°
2026-04-27 19:54 42.03477 31.77681 40239 ft 419 kts 286°
2026-04-27 19:55 42.05218 31.70224 40239 ft 419 kts 286°
2026-04-27 19:55 42.06954 31.62758 40237 ft 421 kts 286°
2026-04-27 19:56 42.08691 31.55275 40235 ft 419 kts 286°
2026-04-27 19:56 42.10424 31.47778 40236 ft 419 kts 286°
2026-04-27 19:57 42.12136 31.40336 40239 ft 419 kts 286°
2026-04-27 19:57 42.13867 31.32790 40255 ft 418 kts 285°
2026-04-27 19:58 42.15566 31.25367 40261 ft 418 kts 285°
2026-04-27 19:58 42.17290 31.17808 40257 ft 418 kts 285°
2026-04-27 19:59 42.18984 31.10347 40255 ft 418 kts 285°
2026-04-27 19:59 42.20688 31.02819 40255 ft 419 kts 285°
2026-04-27 20:00 42.22377 30.95331 40252 ft 419 kts 285°
2026-04-27 20:00 42.24063 30.87837 40255 ft 419 kts 285°
2026-04-27 20:01 42.25742 30.80344 40253 ft 418 kts 285°
2026-04-27 20:01 42.27415 30.72853 40253 ft 419 kts 285°
2026-04-27 20:02 42.29097 30.65298 40250 ft 419 kts 285°
2026-04-27 20:02 42.30766 30.57771 40250 ft 418 kts 285°
2026-04-27 20:03 42.32424 30.50266 40246 ft 419 kts 285°
2026-04-27 20:03 42.34077 30.42769 40249 ft 418 kts 285°
2026-04-27 20:04 42.35728 30.35238 40241 ft 419 kts 285°
2026-04-27 20:04 42.37389 30.27643 40250 ft 420 kts 285°
2026-04-27 20:05 42.39037 30.20081 40240 ft 420 kts 285°
2026-04-27 20:05 42.40675 30.12532 40247 ft 419 kts 285°
2026-04-27 20:06 42.42316 30.04958 40244 ft 420 kts 285°
2026-04-27 20:06 42.43938 29.97433 40254 ft 420 kts 285°
2026-04-27 20:07 42.45568 29.89838 40258 ft 420 kts 285°
2026-04-27 20:07 42.47144 29.82270 40232 ft 419 kts 283°
2026-04-27 20:08 42.48288 29.74521 40241 ft 419 kts 281°
2026-04-27 20:08 42.49490 29.66810 40243 ft 419 kts 281°
2026-04-27 20:09 42.50715 29.59151 40241 ft 420 kts 282°
2026-04-27 20:09 42.51956 29.51426 40247 ft 418 kts 282°
2026-04-27 20:10 42.53193 29.43714 40246 ft 419 kts 282°
2026-04-27 20:10 42.54419 29.36035 40238 ft 420 kts 282°
2026-04-27 20:11 42.55650 29.28275 40247 ft 421 kts 281°
2026-04-27 20:11 42.56876 29.20533 40253 ft 420 kts 281°
2026-04-27 20:12 42.58093 29.12810 40246 ft 421 kts 281°
2026-04-27 20:12 42.59314 29.05010 40248 ft 421 kts 281°
2026-04-27 20:13 42.60523 28.97265 40227 ft 421 kts 281°
2026-04-27 20:13 42.61734 28.89466 40240 ft 422 kts 281°
2026-04-27 20:14 42.62937 28.81679 40245 ft 422 kts 281°
2026-04-27 20:14 42.64137 28.73886 40252 ft 421 kts 281°
2026-04-27 20:15 42.65319 28.66149 40248 ft 421 kts 281°
2026-04-27 20:15 42.66502 28.58385 40247 ft 421 kts 281°
2026-04-27 20:16 42.67689 28.50558 40245 ft 422 kts 281°
2026-04-27 20:16 42.68861 28.42786 40249 ft 422 kts 281°
2026-04-27 20:17 42.70034 28.34980 40246 ft 423 kts 281°
2026-04-27 20:17 42.71202 28.27159 40254 ft 423 kts 281°
2026-04-27 20:18 42.72363 28.19348 40256 ft 423 kts 281°
2026-04-27 20:18 42.73528 28.11478 40256 ft 424 kts 281°
2026-04-27 20:19 42.74682 28.03631 40257 ft 423 kts 281°
2026-04-27 20:19 42.75829 27.95802 40252 ft 423 kts 281°
2026-04-27 20:20 42.76971 27.87954 40237 ft 423 kts 281°
2026-04-27 20:20 42.78111 27.80094 40233 ft 423 kts 281°
2026-04-27 20:21 42.79248 27.72216 40219 ft 423 kts 281°
2026-04-27 20:21 42.80374 27.64370 40225 ft 423 kts 281°
2026-04-27 20:22 42.81491 27.56540 40224 ft 423 kts 281°
2026-04-27 20:22 42.82613 27.48639 40227 ft 424 kts 281°
2026-04-27 20:23 42.83734 27.40709 40220 ft 424 kts 281°
2026-04-27 20:23 42.84840 27.32837 40220 ft 423 kts 281°
2026-04-27 20:24 42.85949 27.24911 40219 ft 423 kts 280°
2026-04-27 20:24 42.87021 27.17194 40213 ft 424 kts 281°
2026-04-27 20:25 42.88121 27.09242 40206 ft 424 kts 281°
2026-04-27 20:25 42.89212 27.01314 40202 ft 426 kts 281°
2026-04-27 20:26 42.90189 26.94182 40202 ft 425 kts 281°
2026-04-27 20:26 42.91213 26.86665 40203 ft 426 kts 281°
2026-04-27 20:27 42.92295 26.78676 40205 ft 426 kts 281°
2026-04-27 20:27 42.93368 26.70713 40203 ft 425 kts 281°
2026-04-27 20:28 42.94436 26.62744 40181 ft 424 kts 281°
2026-04-27 20:28 42.95315 26.56154 40175 ft 424 kts 281°
2026-04-27 20:29 42.96553 26.46821 40175 ft 434 kts 281°
2026-04-27 20:29 42.97648 26.38518 40149 ft 454 kts 281°
2026-04-27 20:30 42.98786 26.29817 40156 ft 468 kts 280°
2026-04-27 20:30 42.99940 26.20954 40172 ft 469 kts 280°
2026-04-27 20:31 43.01077 26.12166 40170 ft 468 kts 280°
2026-04-27 20:31 43.02204 26.03394 40169 ft 468 kts 280°
2026-04-27 20:32 43.03335 25.94539 40172 ft 467 kts 280°
2026-04-27 20:32 43.04446 25.85787 40173 ft 467 kts 281°
2026-04-27 20:33 43.05554 25.77011 40179 ft 467 kts 281°
2026-04-27 20:33 43.06657 25.68215 40179 ft 467 kts 280°
2026-04-27 20:34 43.07752 25.59406 40174 ft 467 kts 281°
2026-04-27 20:34 43.08841 25.50604 40167 ft 467 kts 281°
2026-04-27 20:35 43.09914 25.41870 40175 ft 468 kts 281°
2026-04-27 20:35 43.10992 25.33034 40173 ft 467 kts 280°
2026-04-27 20:36 43.12019 25.24586 40175 ft 468 kts 280°
2026-04-27 20:36 43.13079 25.15774 40170 ft 468 kts 280°
2026-04-27 20:37 43.14140 25.06905 40182 ft 468 kts 280°
2026-04-27 20:37 43.15175 24.98205 40171 ft 466 kts 280°
2026-04-27 20:38 43.16210 24.89437 40177 ft 467 kts 280°
2026-04-27 20:38 43.17246 24.80596 40168 ft 466 kts 280°
2026-04-27 20:39 43.18271 24.71807 40162 ft 467 kts 280°
2026-04-27 20:39 43.19295 24.62953 40176 ft 468 kts 280°
2026-04-27 20:40 43.20305 24.54160 40168 ft 468 kts 280°
2026-04-27 20:40 43.21318 24.45266 40167 ft 468 kts 280°
2026-04-27 20:41 43.22321 24.36408 40158 ft 469 kts 280°
2026-04-27 20:41 43.23319 24.27526 40163 ft 469 kts 280°
2026-04-27 20:42 43.24309 24.18662 40162 ft 469 kts 280°
2026-04-27 20:42 43.25288 24.09825 40165 ft 469 kts 280°
2026-04-27 20:43 43.26270 24.00905 40164 ft 469 kts 279°
2026-04-27 20:43 43.27242 23.92002 40164 ft 469 kts 280°
2026-04-27 20:44 43.28198 23.83153 40163 ft 470 kts 279°
2026-04-27 20:44 43.29026 23.74232 40162 ft 469 kts 279°
2026-04-27 20:45 43.29849 23.65265 40162 ft 470 kts 279°
2026-04-27 20:45 43.30647 23.56324 40161 ft 470 kts 279°
2026-04-27 20:46 43.31435 23.47398 40161 ft 471 kts 278°
2026-04-27 20:46 43.32213 23.38467 40163 ft 471 kts 279°
2026-04-27 20:47 43.32997 23.29427 40169 ft 473 kts 278°
2026-04-27 20:47 43.33771 23.20418 40164 ft 473 kts 278°
2026-04-27 20:48 43.34537 23.11420 40165 ft 472 kts 278°
2026-04-27 20:48 43.35294 23.02469 40164 ft 472 kts 278°
2026-04-27 20:49 43.36050 22.93427 40164 ft 472 kts 278°
2026-04-27 20:49 43.36810 22.84464 40162 ft 471 kts 279°
2026-04-27 20:50 43.38026 22.75601 40165 ft 470 kts 285°
2026-04-27 20:50 43.39894 22.66964 40163 ft 470 kts 291°
2026-04-27 20:51 43.42397 22.58566 40165 ft 469 kts 295°
2026-04-27 20:51 43.44675 22.50106 40163 ft 470 kts 289°
2026-04-27 20:52 43.46281 22.41356 40159 ft 471 kts 283°
2026-04-27 20:52 43.47218 22.32492 40171 ft 472 kts 278°
2026-04-27 20:53 43.47626 22.23370 40159 ft 473 kts 272°
2026-04-27 20:53 43.47327 22.14278 40158 ft 476 kts 266°
2026-04-27 20:54 43.45559 22.00742 40155 ft 480 kts 258°
2026-04-27 20:55 43.43535 21.91929 40154 ft 481 kts 254°
2026-04-27 20:55 43.41708 21.83270 40148 ft 479 kts 260°
2026-04-27 20:56 43.40516 21.74271 40149 ft 477 kts 265°
2026-04-27 20:56 43.39485 21.65220 40151 ft 478 kts 263°
2026-04-27 20:57 43.38318 21.56160 40147 ft 477 kts 263°
2026-04-27 20:57 43.37129 21.47192 40147 ft 477 kts 263°
2026-04-27 20:58 43.35916 21.38134 40143 ft 477 kts 263°
2026-04-27 20:58 43.34711 21.29188 40149 ft 477 kts 262°
2026-04-27 20:59 43.33483 21.20142 40157 ft 477 kts 262°
2026-04-27 20:59 43.32252 21.11126 40161 ft 476 kts 262°
2026-04-27 21:00 43.31020 21.02148 40156 ft 478 kts 262°